Regional Weather Roundup
Issued by NWS

Home | Current Version | Previous Version | Graphics & Text | Print | Product List | Glossary On
Versions: 1 2 3 4 5 6 7 8 9 10 11 12 13 14 15 16 17 18 19 20 21 22 23 24 25 26 27 28 29 30 31 32 33 34 35 36 37 38 39 40 41 42 43 44 45 46 47 48 49 50
000
ASUS45 KSLC 280510
RWRUT

UTAH REGIONAL WEATHER ROUNDUP
NATIONAL WEATHER SERVICE SALT LAKE CITY UT
1100 PM MDT WED JUL 27 2016

UTZ001>011-023>025-280600-

NORTHERN UTAH

CITY           SKY/WX    TMP DP  RH WIND       PRES   REMARKS
BRIGHAM CITY     N/A     77  46  33 CALM      30.04S
HILL AFB       CLEAR     80  35  19 E14       30.08R
LOGAN          CLEAR     69  52  54 SW6       30.07R
OGDEN          CLEAR     78  35  21 S8        30.04R
PROVO AIRPORT  CLEAR     73  43  33 SE5       30.07R
SALT LAKE CITY CLEAR     86  33  15 SE8       30.01S
VERNAL         CLEAR     69  39  33 SW3       30.12R
WENDOVER       CLEAR     82  30  15 W6        30.03R
HEBER CITY     CLEAR     59  41  51 CALM      30.17S

$$

UTZ012>022-026-027-280600-

SOUTHERN/CENTRAL UTAH

CITY           SKY/WX    TMP DP  RH WIND       PRES   REMARKS
BLANDING       CLEAR     74  31  21 N12       30.23S
BRYCE CANYON   PTCLDY    66  33  29 N3        30.37R
CEDAR CITY     CLEAR     82  29  14 SE12      30.16R
DELTA          CLEAR     79  28  15 NE7       30.06S
MILFORD        CLEAR     79  21  11 NW6       30.07R
MOAB/CYNLANDS  CLEAR     81  23  11 W7        30.01S
PRICE          CLEAR     81  21  11 SW5       30.18S
ST GEORGE      CLEAR     97  36  11 SE3       29.89R HX  92

$$

REGIONAL REPORTS     COLORADO/ARIZONA

CITY           SKY/WX    TMP DP  RH WIND       PRES   REMARKS
CRAIG, CO      CLEAR     55  33  43 S3        30.22R
GRAND JUNCTION CLEAR     81  34  18 SE3       30.06R
RIFLE          CLEAR     72  28  19 SE10      30.15R
MONTROSE       CLEAR     73  38  27 SE13      30.18R
CORTEZ         CLEAR     68  42  38 NE6       30.18R
PAGE, AZ       CLEAR     92  28  10 S6        30.00R
GRAND CANYON   CLEAR     66  42  41 MISG      30.28R
KINGMAN        CLEAR     87  47  24 SE3       29.98R
FLAGSTAFF      PTCLDY    73  45  36 CALM      30.28S

$$

REGIONAL REPORTS    NEVADA/IDAHO/WYOMING

CITY           SKY/WX    TMP DP  RH WIND       PRES   REMARKS
LAS VEGAS, NV  PTCLDY   102  43  13 SW9       29.79R HX  97
ELY            MOCLDY    68  23  18 S12       30.20R
ELKO           CLEAR     77  25  14 CALM      30.12R
POCATELLO, ID  CLEAR     77  31  18 SW7       30.06R
BURLEY         CLEAR     68  56  65 SE5       30.03R
EVANSTON, WY   CLEAR     69  24  18 SE3       30.31S
ROCK SPRINGS   CLEAR     72  21  14 W8        30.26S
KEMMERER         N/A    N/A N/A N/A N5        30.33S

$$



USA.gov is the U.S. government's official web portal to all federal, state and local government web resources and services.